Time,TemperatureF,DewpointF,PressureIn,WindDirection,WindDirectionDegrees,WindSpeedMPH,WindSpeedGustMPH,Humidity,HourlyPrecipIn,Conditions,Clouds,dailyrainin,SoftwareType,DateUTC
2013-10-14 00:05:00,58.9,49.1,30.22,ENE,76,2.0,4.0,70,0.00,,,0.00,Wunderground v.1.15,2013-10-14 05:05:00,
2013-10-14 00:10:00,58.7,48.9,30.22,ENE,76,2.0,3.0,70,0.00,,,0.00,Wunderground v.1.15,2013-10-14 05:10:00,
2013-10-14 00:15:00,58.6,48.8,30.22,NE,51,2.0,7.0,70,0.00,,,0.00,Wunderground v.1.15,2013-10-14 05:15:00,
2013-10-14 00:20:00,58.5,48.7,30.22,NE,54,3.0,3.0,70,0.00,,,0.00,Wunderground v.1.15,2013-10-14 05:20:00,
2013-10-14 00:26:00,58.4,48.7,30.21,ENE,73,3.0,8.0,70,0.00,,,0.00,Wunderground v.1.15,2013-10-14 05:26:00,
2013-10-14 00:31:00,58.4,48.7,30.22,ENE,65,3.0,5.0,70,0.00,,,0.00,Wunderground v.1.15,2013-10-14 05:31:00,
2013-10-14 00:37:00,58.3,48.6,30.22,NE,48,3.0,5.0,70,0.00,,,0.00,Wunderground v.1.15,2013-10-14 05:37:00,
2013-10-14 00:42:00,58.2,48.5,30.22,NE,55,3.0,4.0,70,0.00,,,0.00,Wunderground v.1.15,2013-10-14 05:42:00,
2013-10-14 00:47:00,58.1,48.7,30.22,ENE,57,3.0,4.0,71,0.00,,,0.00,Wunderground v.1.15,2013-10-14 05:47:00,
2013-10-14 00:53:00,58.1,48.7,30.21,East,80,2.0,4.0,71,0.00,,,0.00,Wunderground v.1.15,2013-10-14 05:53:00,
2013-10-14 00:58:00,58.0,48.6,30.20,ENE,64,2.0,4.0,71,0.00,,,0.00,Wunderground v.1.15,2013-10-14 05:58:00,
2013-10-14 01:03:00,57.9,48.6,30.21,ENE,65,3.0,3.0,71,0.00,,,0.00,Wunderground v.1.15,2013-10-14 06:03:00,
2013-10-14 01:09:00,57.7,48.7,30.21,ENE,62,3.0,5.0,72,0.00,,,0.00,Wunderground v.1.15,2013-10-14 06:09:00,
2013-10-14 01:14:00,57.6,48.6,30.21,ENE,74,3.0,7.0,72,0.00,,,0.00,Wunderground v.1.15,2013-10-14 06:14:00,
2013-10-14 01:19:00,57.5,48.5,30.21,ENE,69,3.0,7.0,72,0.00,,,0.00,Wunderground v.1.15,2013-10-14 06:19:00,
2013-10-14 01:24:00,57.3,48.7,30.21,ENE,65,3.0,5.0,73,0.00,,,0.00,Wunderground v.1.15,2013-10-14 06:24:00,
2013-10-14 01:29:00,57.3,48.7,30.21,ENE,64,2.0,3.0,73,0.00,,,0.00,Wunderground v.1.15,2013-10-14 06:29:00,
2013-10-14 01:35:00,57.3,48.3,30.20,East,80,3.0,5.0,72,0.00,,,0.00,Wunderground v.1.15,2013-10-14 06:35:00,
2013-10-14 01:40:00,57.6,48.6,30.21,East,84,4.0,5.0,72,0.00,,,0.00,Wunderground v.1.15,2013-10-14 06:40:00,
2013-10-14 01:46:00,57.9,48.6,30.21,ENE,74,4.0,6.0,71,0.00,,,0.00,Wunderground v.1.15,2013-10-14 06:46:00,
2013-10-14 01:51:00,58.0,48.6,30.20,ENE,74,3.0,7.0,71,0.00,,,0.00,Wunderground v.1.15,2013-10-14 06:51:00,
2013-10-14 01:57:00,57.9,48.6,30.20,East,84,3.0,7.0,71,0.00,,,0.00,Wunderground v.1.15,2013-10-14 06:57:00,
2013-10-14 02:02:00,58.0,48.3,30.20,ENE,76,3.0,4.0,70,0.00,,,0.00,Wunderground v.1.15,2013-10-14 07:02:00,
2013-10-14 02:07:00,57.9,48.2,30.20,ENE,77,3.0,4.0,70,0.00,,,0.00,Wunderground v.1.15,2013-10-14 07:07:00,
2013-10-14 02:13:00,57.9,48.6,30.20,East,88,4.0,8.0,71,0.00,,,0.00,Wunderground v.1.15,2013-10-14 07:13:00,
2013-10-14 02:18:00,57.8,48.5,30.20,East,80,4.0,8.0,71,0.00,,,0.00,Wunderground v.1.15,2013-10-14 07:18:00,
2013-10-14 02:24:00,57.8,48.1,30.20,East,90,3.0,6.0,70,0.00,,,0.00,Wunderground v.1.15,2013-10-14 07:24:00,
2013-10-14 02:30:00,57.9,48.2,30.19,East,91,3.0,5.0,70,0.00,,,0.00,Wunderground v.1.15,2013-10-14 07:30:00,
2013-10-14 02:35:00,57.9,48.2,30.19,ENE,64,4.0,5.0,70,0.00,,,0.00,Wunderground v.1.15,2013-10-14 07:35:00,
2013-10-14 02:40:00,57.8,48.1,30.19,ENE,75,4.0,9.0,70,0.00,,,0.00,Wunderground v.1.15,2013-10-14 07:40:00,
2013-10-14 02:45:00,57.8,48.1,30.18,East,90,4.0,9.0,70,0.00,,,0.00,Wunderground v.1.15,2013-10-14 07:45:00,
2013-10-14 02:51:00,57.9,48.2,30.18,ENE,62,5.0,5.0,70,0.00,,,0.00,Wunderground v.1.15,2013-10-14 07:51:00,
2013-10-14 02:56:00,57.8,48.1,30.18,ENE,67,5.0,8.0,70,0.00,,,0.00,Wunderground v.1.15,2013-10-14 07:56:00,
2013-10-14 03:01:00,57.7,48.0,30.18,ESE,102,4.0,5.0,70,0.00,,,0.00,Wunderground v.1.15,2013-10-14 08:01:00,
2013-10-14 03:07:00,57.5,48.2,30.18,ENE,76,4.0,5.0,71,0.00,,,0.00,Wunderground v.1.15,2013-10-14 08:07:00,
2013-10-14 03:12:00,57.3,48.0,30.18,East,92,3.0,5.0,71,0.00,,,0.00,Wunderground v.1.15,2013-10-14 08:12:00,
2013-10-14 03:17:00,57.3,48.0,30.18,NE,50,4.0,7.0,71,0.00,,,0.00,Wunderground v.1.15,2013-10-14 08:17:00,
2013-10-14 03:23:00,57.3,47.6,30.18,ENE,71,4.0,9.0,70,0.00,,,0.00,Wunderground v.1.15,2013-10-14 08:23:00,
2013-10-14 03:28:00,57.4,47.7,30.17,ENE,76,5.0,9.0,70,0.00,,,0.00,Wunderground v.1.15,2013-10-14 08:28:00,
2013-10-14 03:33:00,57.4,47.7,30.17,ENE,77,5.0,10.0,70,0.00,,,0.00,Wunderground v.1.15,2013-10-14 08:33:00,
2013-10-14 03:38:00,57.4,47.7,30.17,ESE,103,4.0,10.0,70,0.00,,,0.00,Wunderground v.1.15,2013-10-14 08:38:00,
2013-10-14 03:43:00,57.4,47.7,30.17,ESE,118,4.0,8.0,70,0.00,,,0.00,Wunderground v.1.15,2013-10-14 08:43:00,
2013-10-14 03:49:00,57.3,47.6,30.17,East,92,4.0,8.0,70,0.00,,,0.00,Wunderground v.1.15,2013-10-14 08:49:00,
2013-10-14 03:54:00,57.2,47.5,30.17,ENE,71,5.0,7.0,70,0.00,,,0.00,Wunderground v.1.15,2013-10-14 08:54:00,
2013-10-14 03:59:00,57.1,47.4,30.17,East,97,5.0,5.0,70,0.00,,,0.00,Wunderground v.1.15,2013-10-14 08:59:00,
2013-10-14 04:05:00,57.1,47.4,30.17,East,91,4.0,7.0,70,0.00,,,0.00,Wunderground v.1.15,2013-10-14 09:05:00,
2013-10-14 04:10:00,57.0,47.3,30.17,East,93,3.0,5.0,70,0.00,,,0.00,Wunderground v.1.15,2013-10-14 09:10:00,
2013-10-14 04:15:00,57.1,47.0,30.17,East,83,4.0,10.0,69,0.00,,,0.00,Wunderground v.1.15,2013-10-14 09:15:00,
2013-10-14 04:21:00,57.2,47.1,30.18,East,90,4.0,5.0,69,0.00,,,0.00,Wunderground v.1.15,2013-10-14 09:21:00,
2013-10-14 04:26:00,57.3,46.8,30.17,East,90,4.0,8.0,68,0.00,,,0.00,Wunderground v.1.15,2013-10-14 09:26:00,
2013-10-14 04:32:00,57.4,46.5,30.17,ENE,71,4.0,7.0,67,0.00,,,0.00,Wunderground v.1.15,2013-10-14 09:32:00,
2013-10-14 04:37:00,57.4,46.1,30.17,East,85,5.0,11.0,66,0.00,,,0.00,Wunderground v.1.15,2013-10-14 09:37:00,
2013-10-14 04:42:00,57.5,46.2,30.17,ENE,70,5.0,5.0,66,0.00,,,0.00,Wunderground v.1.15,2013-10-14 09:42:00,
2013-10-14 04:48:00,57.5,45.8,30.16,ESE,105,4.0,5.0,65,0.00,,,0.00,Wunderground v.1.15,2013-10-14 09:48:00,
2013-10-14 04:53:00,57.5,45.8,30.16,ENE,74,4.0,7.0,65,0.00,,,0.00,Wunderground v.1.15,2013-10-14 09:53:00,
2013-10-14 04:58:00,57.5,45.8,30.16,ENE,67,4.0,8.0,65,0.00,,,0.00,Wunderground v.1.15,2013-10-14 09:58:00,
2013-10-14 05:03:00,57.5,45.4,30.16,East,85,4.0,5.0,64,0.00,,,0.00,Wunderground v.1.15,2013-10-14 10:03:00,
2013-10-14 05:09:00,57.5,45.4,30.16,ESE,108,4.0,7.0,64,0.00,,,0.00,Wunderground v.1.15,2013-10-14 10:09:00,
2013-10-14 05:15:00,57.5,45.4,30.16,ENE,78,4.0,5.0,64,0.00,,,0.00,Wunderground v.1.15,2013-10-14 10:15:00,
2013-10-14 05:20:00,57.4,45.3,30.16,ENE,57,4.0,4.0,64,0.00,,,0.00,Wunderground v.1.15,2013-10-14 10:20:00,
2013-10-14 05:26:00,57.3,45.2,30.16,ENE,71,3.0,5.0,64,0.00,,,0.00,Wunderground v.1.15,2013-10-14 10:26:00,
2013-10-14 05:31:00,57.2,45.1,30.16,East,86,3.0,3.0,64,0.00,,,0.00,Wunderground v.1.15,2013-10-14 10:31:00,
2013-10-14 05:36:00,57.1,45.0,30.16,East,98,4.0,8.0,64,0.00,,,0.00,Wunderground v.1.15,2013-10-14 10:36:00,
2013-10-14 05:42:00,57.0,44.9,30.16,East,98,3.0,7.0,64,0.00,,,0.00,Wunderground v.1.15,2013-10-14 10:42:00,
2013-10-14 05:47:00,56.9,44.8,30.16,ENE,76,3.0,7.0,64,0.00,,,0.00,Wunderground v.1.15,2013-10-14 10:47:00,
2013-10-14 05:53:00,56.9,44.8,30.16,East,98,3.0,5.0,64,0.00,,,0.00,Wunderground v.1.15,2013-10-14 10:53:00,
2013-10-14 05:58:00,56.9,44.8,30.16,East,100,4.0,5.0,64,0.00,,,0.00,Wunderground v.1.15,2013-10-14 10:58:00,
2013-10-14 06:03:00,57.1,44.6,30.16,East,90,4.0,8.0,63,0.00,,,0.00,Wunderground v.1.15,2013-10-14 11:03:00,
2013-10-14 06:08:00,57.2,44.7,30.16,ENE,74,5.0,8.0,63,0.00,,,0.00,Wunderground v.1.15,2013-10-14 11:08:00,
2013-10-14 06:13:00,57.2,44.7,30.16,ESE,105,4.0,7.0,63,0.00,,,0.00,Wunderground v.1.15,2013-10-14 11:13:00,
2013-10-14 06:19:00,57.2,44.7,30.16,ENE,76,4.0,7.0,63,0.00,,,0.00,Wunderground v.1.15,2013-10-14 11:19:00,
2013-10-14 06:24:00,57.2,44.7,30.15,ENE,63,4.0,5.0,63,0.00,,,0.00,Wunderground v.1.15,2013-10-14 11:24:00,
2013-10-14 06:29:00,57.1,44.6,30.16,ENE,65,4.0,7.0,63,0.00,,,0.00,Wunderground v.1.15,2013-10-14 11:29:00,
2013-10-14 06:35:00,56.9,44.8,30.16,NE,45,4.0,7.0,64,0.00,,,0.00,Wunderground v.1.15,2013-10-14 11:35:00,
2013-10-14 06:40:00,56.7,44.7,30.16,East,99,3.0,3.0,64,0.00,,,0.00,Wunderground v.1.15,2013-10-14 11:40:00,
2013-10-14 06:46:00,56.5,44.9,30.16,ENE,76,3.0,5.0,65,0.00,,,0.00,Wunderground v.1.15,2013-10-14 11:46:00,
2013-10-14 06:51:00,56.4,44.8,30.15,ENE,71,4.0,4.0,65,0.00,,,0.00,Wunderground v.1.15,2013-10-14 11:51:00,
2013-10-14 06:56:00,56.3,44.7,30.16,East,79,4.0,6.0,65,0.00,,,0.00,Wunderground v.1.15,2013-10-14 11:56:00,
2013-10-14 07:01:00,56.3,44.7,30.16,ENE,77,4.0,7.0,65,0.00,,,0.00,Wunderground v.1.15,2013-10-14 12:01:00,
2013-10-14 07:07:00,56.3,44.7,30.15,East,93,4.0,7.0,65,0.00,,,0.00,Wunderground v.1.15,2013-10-14 12:07:00,
2013-10-14 07:13:00,56.5,44.5,30.15,ESE,123,4.0,7.0,64,0.00,,,0.00,Wunderground v.1.15,2013-10-14 12:13:00,
2013-10-14 07:18:00,56.6,44.6,30.15,East,97,5.0,8.0,64,0.00,,,0.00,Wunderground v.1.15,2013-10-14 12:18:00,
2013-10-14 07:23:00,56.7,44.7,30.15,SE,126,5.0,5.0,64,0.00,,,0.00,Wunderground v.1.15,2013-10-14 12:23:00,
2013-10-14 07:28:00,56.8,44.3,30.15,ESE,103,4.0,5.0,63,0.00,,,0.00,Wunderground v.1.15,2013-10-14 12:28:00,
2013-10-14 07:34:00,56.8,44.3,30.15,NE,44,4.0,5.0,63,0.00,,,0.00,Wunderground v.1.15,2013-10-14 12:34:00,
2013-10-14 07:39:00,56.9,44.4,30.15,East,85,4.0,10.0,63,0.00,,,0.00,Wunderground v.1.15,2013-10-14 12:39:00,
2013-10-14 07:44:00,56.8,44.7,30.15,ENE,63,4.0,5.0,64,0.00,,,0.00,Wunderground v.1.15,2013-10-14 12:44:00,
2013-10-14 07:49:00,56.7,44.7,30.15,East,101,4.0,4.0,64,0.00,,,0.00,Wunderground v.1.15,2013-10-14 12:49:00,
2013-10-14 07:55:00,56.7,45.1,30.16,East,93,3.0,8.0,65,0.00,,,0.00,Wunderground v.1.15,2013-10-14 12:55:00,
2013-10-14 08:00:00,56.6,45.0,30.15,East,98,3.0,3.0,65,0.00,,,0.00,Wunderground v.1.15,2013-10-14 13:00:00,
2013-10-14 08:05:00,56.5,45.3,30.16,ESE,103,3.0,3.0,66,0.00,,,0.00,Wunderground v.1.15,2013-10-14 13:05:00,
2013-10-14 08:11:00,56.5,44.9,30.16,ENE,74,3.0,3.0,65,0.00,,,0.00,Wunderground v.1.15,2013-10-14 13:11:00,
2013-10-14 08:16:00,56.6,45.0,30.16,ESE,105,3.0,3.0,65,0.00,,,0.00,Wunderground v.1.15,2013-10-14 13:16:00,
2013-10-14 08:22:00,56.6,45.0,30.16,East,88,3.0,7.0,65,0.00,,,0.00,Wunderground v.1.15,2013-10-14 13:22:00,
2013-10-14 08:27:00,56.7,45.1,30.16,ESE,115,3.0,7.0,65,0.00,,,0.00,Wunderground v.1.15,2013-10-14 13:27:00,
2013-10-14 08:33:00,56.7,45.1,30.16,ENE,65,2.0,4.0,65,0.00,,,0.00,Wunderground v.1.15,2013-10-14 13:33:00,
2013-10-14 08:38:00,56.7,45.1,30.17,ENE,76,2.0,6.0,65,0.00,,,0.00,Wunderground v.1.15,2013-10-14 13:38:00,
2013-10-14 08:43:00,56.6,45.4,30.17,East,81,2.0,3.0,66,0.00,,,0.00,Wunderground v.1.15,2013-10-14 13:43:00,
2013-10-14 08:49:00,56.6,45.4,30.17,ESE,105,2.0,3.0,66,0.00,,,0.00,Wunderground v.1.15,2013-10-14 13:49:00,
2013-10-14 08:54:00,56.7,45.5,30.16,East,97,3.0,5.0,66,0.00,,,0.00,Wunderground v.1.15,2013-10-14 13:54:00,
2013-10-14 09:00:00,56.7,45.5,30.16,ESE,109,3.0,3.0,66,0.00,,,0.00,Wunderground v.1.15,2013-10-14 14:00:00,
2013-10-14 09:05:00,56.7,46.3,30.17,ESE,106,2.0,5.0,68,0.00,,,0.00,Wunderground v.1.15,2013-10-14 14:05:00,
2013-10-14 09:11:00,56.6,46.2,30.16,ESE,113,1.0,2.0,68,0.00,,,0.00,Wunderground v.1.15,2013-10-14 14:11:00,
2013-10-14 09:16:00,56.7,45.9,30.16,SSE,165,1.0,3.0,67,0.00,,,0.00,Wunderground v.1.15,2013-10-14 14:16:00,
2013-10-14 09:21:00,56.8,46.0,30.16,SSE,165,1.0,1.0,67,0.00,,,0.00,Wunderground v.1.15,2013-10-14 14:21:00,
2013-10-14 09:27:00,56.9,46.8,30.16,SSE,163,1.0,2.0,69,0.00,,,0.00,Wunderground v.1.15,2013-10-14 14:27:00,
2013-10-14 09:32:00,57.1,46.2,30.16,SE,132,1.0,3.0,67,0.00,,,0.00,Wunderground v.1.15,2013-10-14 14:32:00,
2013-10-14 09:38:00,57.4,46.1,30.16,East,84,2.0,5.0,66,0.00,,,0.00,Wunderground v.1.15,2013-10-14 14:38:00,
2013-10-14 09:44:00,57.6,46.3,30.16,East,95,3.0,6.0,66,0.00,,,0.00,Wunderground v.1.15,2013-10-14 14:44:00,
2013-10-14 09:49:00,57.8,46.5,30.15,East,97,3.0,5.0,66,0.00,,,0.00,Wunderground v.1.15,2013-10-14 14:49:00,
2013-10-14 09:55:00,58.0,46.7,30.15,ESE,114,3.0,5.0,66,0.00,,,0.00,Wunderground v.1.15,2013-10-14 14:55:00,
2013-10-14 10:00:00,58.1,47.2,30.15,East,92,2.0,2.0,67,0.00,,,0.00,Wunderground v.1.15,2013-10-14 15:00:00,
2013-10-14 10:06:00,58.3,47.0,30.15,SE,140,2.0,4.0,66,0.00,,,0.00,Wunderground v.1.15,2013-10-14 15:06:00,
2013-10-14 10:11:00,58.7,47.0,30.15,SE,139,2.0,2.0,65,0.00,,,0.00,Wunderground v.1.15,2013-10-14 15:11:00,
2013-10-14 10:16:00,59.0,47.2,30.15,SSE,155,2.0,3.0,65,0.00,,,0.00,Wunderground v.1.15,2013-10-14 15:16:00,
2013-10-14 10:23:00,59.2,47.0,30.15,SE,136,3.0,5.0,64,0.00,,,0.00,Wunderground v.1.15,2013-10-14 15:23:00,
2013-10-14 10:28:00,59.4,47.2,30.15,ENE,76,3.0,5.0,64,0.00,,,0.00,Wunderground v.1.15,2013-10-14 15:28:00,
2013-10-14 10:33:00,59.5,47.3,30.15,ESE,123,3.0,6.0,64,0.00,,,0.00,Wunderground v.1.15,2013-10-14 15:33:00,
2013-10-14 10:38:00,59.6,47.8,30.14,ESE,102,4.0,6.0,65,0.00,,,0.00,Wunderground v.1.15,2013-10-14 15:38:00,
2013-10-14 10:44:00,59.8,48.4,30.14,SE,144,3.0,6.0,66,0.00,,,0.00,Wunderground v.1.15,2013-10-14 15:44:00,
2013-10-14 10:49:00,60.0,48.2,30.15,ESE,107,3.0,7.0,65,0.00,,,0.00,Wunderground v.1.15,2013-10-14 15:49:00,
2013-10-14 10:54:00,60.2,48.8,30.14,ESE,115,3.0,6.0,66,0.00,,,0.00,Wunderground v.1.15,2013-10-14 15:54:00,
2013-10-14 11:00:00,60.3,48.9,30.14,SE,130,3.0,3.0,66,0.00,,,0.00,Wunderground v.1.15,2013-10-14 16:00:00,
2013-10-14 11:05:00,60.4,49.0,30.14,ESE,105,3.0,5.0,66,0.00,,,0.00,Wunderground v.1.15,2013-10-14 16:05:00,
2013-10-14 11:10:00,60.4,49.0,30.14,SSE,157,2.0,3.0,66,0.00,,,0.00,Wunderground v.1.15,2013-10-14 16:10:00,
2013-10-14 11:15:00,60.4,49.0,30.13,SE,126,3.0,8.0,66,0.00,,,0.00,Wunderground v.1.15,2013-10-14 16:15:00,
2013-10-14 11:21:00,60.5,49.5,30.13,SE,126,4.0,5.0,67,0.00,,,0.00,Wunderground v.1.15,2013-10-14 16:21:00,
2013-10-14 11:26:00,60.7,49.7,30.13,SE,143,3.0,8.0,67,0.00,,,0.00,Wunderground v.1.15,2013-10-14 16:26:00,
2013-10-14 11:32:00,60.7,50.1,30.13,East,93,2.0,3.0,68,0.00,,,0.00,Wunderground v.1.15,2013-10-14 16:32:00,
2013-10-14 11:37:00,60.9,50.7,30.13,ESE,111,2.0,4.0,69,0.00,,,0.00,Wunderground v.1.15,2013-10-14 16:37:00,
2013-10-14 11:43:00,61.1,50.8,30.12,ESE,115,2.0,7.0,69,0.00,,,0.00,Wunderground v.1.15,2013-10-14 16:43:00,
2013-10-14 11:48:00,61.3,51.4,30.12,East,94,2.0,7.0,70,0.00,,,0.00,Wunderground v.1.15,2013-10-14 16:48:00,
2013-10-14 11:53:00,61.4,51.5,30.12,East,98,2.0,2.0,70,0.00,,,0.00,Wunderground v.1.15,2013-10-14 16:53:00,
2013-10-14 11:58:00,61.7,51.8,30.11,ESE,120,1.0,2.0,70,0.00,,,0.00,Wunderground v.1.15,2013-10-14 16:58:00,
2013-10-14 12:03:00,61.8,52.3,30.12,ESE,113,1.0,3.0,71,0.00,,,0.00,Wunderground v.1.15,2013-10-14 17:03:00,
2013-10-14 12:08:00,62.0,52.5,30.12,ESE,115,2.0,3.0,71,0.00,,,0.00,Wunderground v.1.15,2013-10-14 17:08:00,
2013-10-14 12:14:00,62.2,53.1,30.11,SE,131,2.0,3.0,72,0.00,,,0.00,Wunderground v.1.15,2013-10-14 17:14:00,
2013-10-14 12:19:00,62.4,53.3,30.11,SE,137,3.0,7.0,72,0.00,,,0.00,Wunderground v.1.15,2013-10-14 17:19:00,
2013-10-14 12:24:00,62.6,53.4,30.11,SSE,158,3.0,4.0,72,0.00,,,0.00,Wunderground v.1.15,2013-10-14 17:24:00,
2013-10-14 12:29:00,63.0,53.8,30.11,SSE,153,1.0,4.0,72,0.00,,,0.00,Wunderground v.1.15,2013-10-14 17:29:00,
2013-10-14 12:34:00,63.2,54.0,30.10,SSE,154,1.0,4.0,72,0.00,,,0.00,Wunderground v.1.15,2013-10-14 17:34:00,
2013-10-14 12:40:00,63.3,54.1,30.10,SE,146,2.0,4.0,72,0.00,,,0.00,Wunderground v.1.15,2013-10-14 17:40:00,
2013-10-14 12:45:00,63.4,54.2,30.10,SE,144,2.0,4.0,72,0.00,,,0.00,Wunderground v.1.15,2013-10-14 17:45:00,
2013-10-14 12:50:00,63.6,54.4,30.09,SE,141,1.0,1.0,72,0.00,,,0.00,Wunderground v.1.15,2013-10-14 17:50:00,
2013-10-14 12:56:00,63.6,54.8,30.09,SE,128,2.0,3.0,73,0.00,,,0.00,Wunderground v.1.15,2013-10-14 17:56:00,
2013-10-14 13:01:00,63.7,55.3,30.08,SSE,149,2.0,2.0,74,0.00,,,0.00,Wunderground v.1.15,2013-10-14 18:01:00,
2013-10-14 13:06:00,63.8,55.7,30.08,ESE,117,1.0,4.0,75,0.00,,,0.00,Wunderground v.1.15,2013-10-14 18:06:00,
2013-10-14 13:12:00,64.1,55.6,30.08,SSE,155,2.0,5.0,74,0.00,,,0.00,Wunderground v.1.15,2013-10-14 18:12:00,
2013-10-14 13:17:00,64.2,56.1,30.08,SE,142,2.0,5.0,75,0.00,,,0.00,Wunderground v.1.15,2013-10-14 18:17:00,
2013-10-14 13:22:00,64.5,56.8,30.08,SE,143,2.0,2.0,76,0.00,,,0.00,Wunderground v.1.15,2013-10-14 18:22:00,
2013-10-14 13:28:00,64.7,57.0,30.07,SE,129,2.0,4.0,76,0.00,,,0.00,Wunderground v.1.15,2013-10-14 18:28:00,
2013-10-14 13:33:00,64.9,57.5,30.07,SE,141,2.0,4.0,77,0.00,,,0.00,Wunderground v.1.15,2013-10-14 18:33:00,
2013-10-14 13:38:00,65.1,57.7,30.06,SE,144,4.0,7.0,77,0.00,,,0.00,Wunderground v.1.15,2013-10-14 18:38:00,
2013-10-14 13:43:00,65.2,58.2,30.05,SE,132,5.0,6.0,78,0.00,,,0.00,Wunderground v.1.15,2013-10-14 18:43:00,
2013-10-14 13:49:00,65.4,58.4,30.05,SE,146,5.0,6.0,78,0.00,,,0.00,Wunderground v.1.15,2013-10-14 18:49:00,
2013-10-14 13:54:00,65.6,58.6,30.05,ESE,122,5.0,6.0,78,0.00,,,0.00,Wunderground v.1.15,2013-10-14 18:54:00,
2013-10-14 13:59:00,65.8,59.1,30.05,SE,138,5.0,6.0,79,0.00,,,0.00,Wunderground v.1.15,2013-10-14 18:59:00,
2013-10-14 14:04:00,66.1,59.0,30.05,SE,136,4.0,11.0,78,0.00,,,0.00,Wunderground v.1.15,2013-10-14 19:04:00,
2013-10-14 14:10:00,66.2,59.5,30.04,SSE,153,6.0,6.0,79,0.00,,,0.00,Wunderground v.1.15,2013-10-14 19:10:00,
2013-10-14 14:15:00,66.3,59.6,30.04,SE,140,6.0,7.0,79,0.00,,,0.00,Wunderground v.1.15,2013-10-14 19:15:00,
2013-10-14 14:21:00,66.4,59.3,30.03,SE,126,5.0,5.0,78,0.00,,,0.00,Wunderground v.1.15,2013-10-14 19:21:00,
2013-10-14 14:26:00,66.5,59.4,30.03,SE,137,6.0,9.0,78,0.00,,,0.00,Wunderground v.1.15,2013-10-14 19:26:00,
2013-10-14 14:31:00,66.6,59.9,30.03,SSE,158,5.0,5.0,79,0.00,,,0.00,Wunderground v.1.15,2013-10-14 19:31:00,
2013-10-14 14:37:00,66.7,60.0,30.02,SE,133,4.0,9.0,79,0.00,,,0.00,Wunderground v.1.15,2013-10-14 19:37:00,
2013-10-14 14:42:00,66.7,60.0,30.02,SE,126,4.0,7.0,79,0.00,,,0.00,Wunderground v.1.15,2013-10-14 19:42:00,
2013-10-14 14:48:00,66.8,60.1,30.02,SE,136,4.0,7.0,79,0.00,,,0.00,Wunderground v.1.15,2013-10-14 19:48:00,
2013-10-14 14:53:00,66.8,60.1,30.02,SSE,162,5.0,5.0,79,0.00,,,0.00,Wunderground v.1.15,2013-10-14 19:53:00,
2013-10-14 14:58:00,66.8,60.1,30.01,South,169,5.0,7.0,79,0.00,,,0.00,Wunderground v.1.15,2013-10-14 19:58:00,
2013-10-14 15:04:00,66.9,60.2,30.01,SSE,160,5.0,10.0,79,0.00,,,0.00,Wunderground v.1.15,2013-10-14 20:04:00,
2013-10-14 15:10:00,67.0,60.3,30.01,South,182,6.0,6.0,79,0.00,,,0.00,Wunderground v.1.15,2013-10-14 20:10:00,
2013-10-14 15:15:00,67.0,60.3,30.00,SE,129,7.0,11.0,79,0.00,,,0.00,Wunderground v.1.15,2013-10-14 20:15:00,
2013-10-14 15:20:00,67.0,60.3,30.00,SSE,152,7.0,7.0,79,0.00,,,0.00,Wunderground v.1.15,2013-10-14 20:20:00,
2013-10-14 15:25:00,67.0,60.3,30.00,SE,145,7.0,11.0,79,0.00,,,0.00,Wunderground v.1.15,2013-10-14 20:25:00,
2013-10-14 15:30:00,67.1,60.0,30.00,SSE,149,8.0,10.0,78,0.00,,,0.00,Wunderground v.1.15,2013-10-14 20:30:00,
2013-10-14 15:36:00,67.1,60.0,29.99,East,100,8.0,12.0,78,0.00,,,0.00,Wunderground v.1.15,2013-10-14 20:36:00,
2013-10-14 15:41:00,67.1,60.4,29.99,SE,142,6.0,7.0,79,0.00,,,0.00,Wunderground v.1.15,2013-10-14 20:41:00,
2013-10-14 15:46:00,67.1,60.4,29.99,SSE,156,6.0,7.0,79,0.00,,,0.00,Wunderground v.1.15,2013-10-14 20:46:00,
2013-10-14 15:52:00,67.3,60.2,29.99,SSE,157,6.0,9.0,78,0.00,,,0.00,Wunderground v.1.15,2013-10-14 20:52:00,
2013-10-14 15:58:00,67.3,60.2,29.99,SSE,159,7.0,16.0,78,0.00,,,0.00,Wunderground v.1.15,2013-10-14 20:58:00,
2013-10-14 16:03:00,67.3,60.2,29.99,SE,142,8.0,11.0,78,0.00,,,0.00,Wunderground v.1.15,2013-10-14 21:03:00,
2013-10-14 16:08:00,67.2,60.1,29.99,SSE,150,7.0,11.0,78,0.00,,,0.00,Wunderground v.1.15,2013-10-14 21:08:00,
2013-10-14 16:09:00,67.2,60.1,29.99,SSE,157,7.0,11.0,78,0.00,,,0.00,Wunderground v.1.15,2013-10-14 21:09:00,
2013-10-14 16:14:00,67.2,60.1,29.99,SSE,158,7.0,8.0,78,0.00,,,0.00,Wunderground v.1.15,2013-10-14 21:14:00,
2013-10-14 16:19:00,67.2,60.1,29.99,SSE,151,7.0,11.0,78,0.00,,,0.00,Wunderground v.1.15,2013-10-14 21:19:00,
2013-10-14 16:25:00,67.0,60.3,29.99,ESE,103,6.0,8.0,79,0.00,,,0.00,Wunderground v.1.15,2013-10-14 21:25:00,
2013-10-14 16:30:00,67.0,60.3,29.99,SSE,150,6.0,9.0,79,0.00,,,0.00,Wunderground v.1.15,2013-10-14 21:30:00,
2013-10-14 16:35:00,66.8,60.1,29.99,SE,144,7.0,10.0,79,0.00,,,0.00,Wunderground v.1.15,2013-10-14 21:35:00,
2013-10-14 16:41:00,66.6,60.2,29.99,SSE,159,6.0,6.0,80,0.00,,,0.00,Wunderground v.1.15,2013-10-14 21:41:00,
2013-10-14 16:46:00,66.5,60.1,29.98,ESE,118,6.0,6.0,80,0.00,,,0.00,Wunderground v.1.15,2013-10-14 21:46:00,
2013-10-14 16:52:00,66.3,60.3,29.99,South,179,6.0,6.0,81,0.00,,,0.00,Wunderground v.1.15,2013-10-14 21:52:00,
2013-10-14 16:57:00,66.1,60.1,29.98,SE,146,5.0,8.0,81,0.00,,,0.00,Wunderground v.1.15,2013-10-14 21:57:00,
2013-10-14 17:03:00,65.9,59.9,29.98,SE,143,5.0,5.0,81,0.00,,,0.00,Wunderground v.1.15,2013-10-14 22:03:00,
2013-10-14 17:08:00,65.9,60.2,29.98,SSE,147,5.0,6.0,82,0.00,,,0.00,Wunderground v.1.15,2013-10-14 22:08:00,
2013-10-14 17:14:00,65.7,60.1,29.98,SE,134,5.0,5.0,82,0.00,,,0.00,Wunderground v.1.15,2013-10-14 22:14:00,
2013-10-14 17:19:00,65.4,60.1,29.98,SSE,167,5.0,8.0,83,0.00,,,0.00,Wunderground v.1.15,2013-10-14 22:19:00,
2013-10-14 17:25:00,65.3,60.0,29.98,SSE,148,5.0,8.0,83,0.00,,,0.00,Wunderground v.1.15,2013-10-14 22:25:00,
2013-10-14 17:30:00,65.1,59.8,29.99,ESE,121,6.0,6.0,83,0.00,,,0.01,Wunderground v.1.15,2013-10-14 22:30:00,
2013-10-14 17:35:00,64.9,59.9,29.99,SSE,151,6.0,6.0,84,0.00,,,0.01,Wunderground v.1.15,2013-10-14 22:35:00,
2013-10-14 17:41:00,64.6,60.0,29.99,SSE,149,6.0,6.0,85,0.06,,,0.02,Wunderground v.1.15,2013-10-14 22:41:00,
2013-10-14 17:46:00,64.3,59.7,29.98,SSE,157,6.0,9.0,85,0.06,,,0.02,Wunderground v.1.15,2013-10-14 22:46:00,
2013-10-14 17:52:00,64.2,59.6,29.98,SSE,150,6.0,8.0,85,0.04,,,0.02,Wunderground v.1.15,2013-10-14 22:52:00,
2013-10-14 17:57:00,64.0,59.7,29.98,SSE,147,6.0,10.0,86,0.00,,,0.02,Wunderground v.1.15,2013-10-14 22:57:00,
2013-10-14 18:02:00,63.9,59.3,29.98,East,99,5.0,9.0,85,0.00,,,0.03,Wunderground v.1.15,2013-10-14 23:02:00,
2013-10-14 18:08:00,63.7,59.1,29.98,SE,138,6.0,9.0,85,0.07,,,0.04,Wunderground v.1.15,2013-10-14 23:08:00,
2013-10-14 18:13:00,63.6,59.3,29.98,ESE,105,6.0,8.0,86,0.07,,,0.04,Wunderground v.1.15,2013-10-14 23:13:00,
2013-10-14 18:19:00,63.3,59.0,29.98,SE,146,6.0,8.0,86,0.05,,,0.04,Wunderground v.1.15,2013-10-14 23:19:00,
2013-10-14 18:24:00,63.2,58.9,29.98,SE,133,6.0,9.0,86,0.04,,,0.04,Wunderground v.1.15,2013-10-14 23:24:00,
2013-10-14 18:30:00,63.2,58.3,29.98,SE,142,7.0,7.0,84,0.00,,,0.04,Wunderground v.1.15,2013-10-14 23:30:00,
2013-10-14 18:35:00,63.2,57.9,29.98,East,99,7.0,10.0,83,0.00,,,0.05,Wunderground v.1.15,2013-10-14 23:35:00,
2013-10-14 18:41:00,63.2,57.9,29.98,SE,138,8.0,11.0,83,0.00,,,0.05,Wunderground v.1.15,2013-10-14 23:41:00,
2013-10-14 18:46:00,63.2,57.6,29.97,ESE,120,9.0,14.0,82,0.00,,,0.05,Wunderground v.1.15,2013-10-14 23:46:00,
2013-10-14 18:51:00,63.2,57.6,29.97,ESE,109,9.0,13.0,82,0.00,,,0.05,Wunderground v.1.15,2013-10-14 23:51:00,
2013-10-14 18:57:00,63.0,57.8,29.97,SSE,161,8.0,13.0,83,0.00,,,0.05,Wunderground v.1.15,2013-10-14 23:57:00,
2013-10-14 19:02:00,63.0,57.8,29.97,SE,125,7.0,9.0,83,0.00,,,0.05,Wunderground v.1.15,2013-10-15 00:02:00,
2013-10-14 19:08:00,63.1,57.9,29.97,ESE,105,6.0,9.0,83,0.00,,,0.05,Wunderground v.1.15,2013-10-15 00:08:00,
2013-10-14 19:13:00,63.2,57.9,29.97,East,101,6.0,9.0,83,0.00,,,0.05,Wunderground v.1.15,2013-10-15 00:13:00,
2013-10-14 19:18:00,63.3,58.0,29.97,SE,139,7.0,10.0,83,0.00,,,0.05,Wunderground v.1.15,2013-10-15 00:18:00,
2013-10-14 19:24:00,63.3,58.0,29.97,SSE,167,7.0,8.0,83,0.00,,,0.05,Wunderground v.1.15,2013-10-15 00:24:00,
2013-10-14 19:30:00,63.4,58.1,29.97,SSE,156,7.0,7.0,83,0.00,,,0.05,Wunderground v.1.15,2013-10-15 00:30:00,
2013-10-14 19:35:00,63.1,57.9,29.97,South,171,7.0,9.0,83,0.00,,,0.05,Wunderground v.1.15,2013-10-15 00:35:00,
2013-10-14 19:40:00,63.0,58.1,29.97,South,173,7.0,7.0,84,0.00,,,0.05,Wunderground v.1.15,2013-10-15 00:40:00,
2013-10-14 19:45:00,62.7,57.8,29.98,SSW,208,7.0,10.0,84,0.00,,,0.05,Wunderground v.1.15,2013-10-15 00:45:00,
2013-10-14 19:50:00,62.3,58.1,29.98,SE,144,7.0,7.0,86,0.00,,,0.06,Wunderground v.1.15,2013-10-15 00:50:00,
2013-10-14 19:55:00,62.0,58.1,29.98,SSE,167,7.0,10.0,87,0.00,,,0.06,Wunderground v.1.15,2013-10-15 00:55:00,
2013-10-14 20:01:00,61.9,57.3,29.98,SSW,196,8.0,8.0,85,0.00,,,0.06,Wunderground v.1.15,2013-10-15 01:01:00,
2013-10-14 20:06:00,62.2,57.3,29.98,SSE,157,10.0,15.0,84,0.00,,,0.06,Wunderground v.1.15,2013-10-15 01:06:00,
2013-10-14 20:12:00,62.1,57.5,29.98,SSE,154,10.0,14.0,85,0.00,,,0.06,Wunderground v.1.15,2013-10-15 01:12:00,
2013-10-14 20:17:00,62.0,58.1,29.97,SE,146,8.0,14.0,87,0.00,,,0.07,Wunderground v.1.15,2013-10-15 01:17:00,
2013-10-14 20:23:00,62.2,57.6,29.97,ESE,104,8.0,8.0,85,0.06,,,0.08,Wunderground v.1.15,2013-10-15 01:23:00,
2013-10-14 20:28:00,62.3,57.7,29.97,SSE,156,7.0,10.0,85,0.06,,,0.08,Wunderground v.1.15,2013-10-15 01:28:00,
2013-10-14 20:33:00,62.2,57.3,29.98,SSE,165,7.0,7.0,84,0.06,,,0.08,Wunderground v.1.15,2013-10-15 01:33:00,
2013-10-14 20:39:00,62.1,57.2,29.98,South,186,6.0,7.0,84,0.04,,,0.08,Wunderground v.1.15,2013-10-15 01:39:00,
2013-10-14 20:45:00,62.2,57.3,29.98,SE,140,6.0,6.0,84,0.00,,,0.08,Wunderground v.1.15,2013-10-15 01:45:00,
2013-10-14 20:50:00,62.4,57.8,29.98,SSE,165,6.0,6.0,85,0.00,,,0.08,Wunderground v.1.15,2013-10-15 01:50:00,
2013-10-14 20:55:00,62.2,58.0,29.99,ESE,123,6.0,6.0,86,0.00,,,0.08,Wunderground v.1.15,2013-10-15 01:55:00,
2013-10-14 21:00:00,62.1,58.5,29.99,SE,139,5.0,9.0,88,0.00,,,0.08,Wunderground v.1.15,2013-10-15 02:00:00,
2013-10-14 21:06:00,62.1,58.8,29.99,SSW,198,7.0,10.0,89,0.00,,,0.08,Wunderground v.1.15,2013-10-15 02:06:00,
2013-10-14 21:11:00,62.0,59.0,29.98,SE,140,8.0,12.0,90,0.00,,,0.08,Wunderground v.1.15,2013-10-15 02:11:00,
2013-10-14 21:17:00,62.1,59.1,29.98,SE,143,8.0,12.0,90,0.00,,,0.08,Wunderground v.1.15,2013-10-15 02:17:00,
2013-10-14 21:22:00,62.2,59.2,29.98,SSE,167,7.0,8.0,90,0.00,,,0.08,Wunderground v.1.15,2013-10-15 02:22:00,
2013-10-14 21:27:00,62.1,59.1,29.98,SSE,167,6.0,8.0,90,0.00,,,0.08,Wunderground v.1.15,2013-10-15 02:27:00,
2013-10-14 21:33:00,62.4,59.4,29.98,SSE,161,7.0,12.0,90,0.00,,,0.08,Wunderground v.1.15,2013-10-15 02:33:00,
2013-10-14 21:38:00,62.4,59.4,29.98,SE,130,7.0,12.0,90,0.00,,,0.08,Wunderground v.1.15,2013-10-15 02:38:00,
2013-10-14 21:44:00,62.4,59.4,29.98,SSE,150,7.0,9.0,90,0.00,,,0.08,Wunderground v.1.15,2013-10-15 02:44:00,
2013-10-14 21:49:00,62.3,59.3,29.98,SE,130,6.0,6.0,90,0.00,,,0.08,Wunderground v.1.15,2013-10-15 02:49:00,
2013-10-14 21:55:00,62.2,59.2,29.98,SE,146,5.0,7.0,90,0.00,,,0.08,Wunderground v.1.15,2013-10-15 02:55:00,
2013-10-14 22:00:00,62.2,59.5,29.98,South,171,6.0,9.0,91,0.00,,,0.08,Wunderground v.1.15,2013-10-15 03:00:00,
2013-10-14 22:05:00,62.2,59.5,29.98,SE,138,6.0,9.0,91,0.00,,,0.08,Wunderground v.1.15,2013-10-15 03:05:00,
2013-10-14 22:11:00,62.2,59.5,29.98,ESE,111,6.0,8.0,91,0.00,,,0.08,Wunderground v.1.15,2013-10-15 03:11:00,
2013-10-14 22:16:00,62.3,59.6,29.99,West,260,6.0,8.0,91,0.00,,,0.08,Wunderground v.1.15,2013-10-15 03:16:00,
2013-10-14 22:22:00,62.2,59.5,29.98,South,182,5.0,5.0,91,0.00,,,0.08,Wunderground v.1.15,2013-10-15 03:22:00,
2013-10-14 22:28:00,62.1,59.4,29.98,SSE,157,5.0,6.0,91,0.00,,,0.08,Wunderground v.1.15,2013-10-15 03:28:00,
2013-10-14 22:33:00,62.1,59.4,29.98,South,175,5.0,6.0,91,0.00,,,0.08,Wunderground v.1.15,2013-10-15 03:33:00,
2013-10-14 22:39:00,62.2,59.2,29.98,SSE,167,6.0,10.0,90,0.00,,,0.08,Wunderground v.1.15,2013-10-15 03:39:00,
2013-10-14 22:44:00,62.3,59.0,29.98,SSE,165,7.0,11.0,89,0.00,,,0.08,Wunderground v.1.15,2013-10-15 03:44:00,
2013-10-14 22:50:00,62.4,58.5,29.98,SSE,163,8.0,8.0,87,0.00,,,0.08,Wunderground v.1.15,2013-10-15 03:50:00,
2013-10-14 22:55:00,62.4,58.2,29.97,SSE,167,7.0,8.0,86,0.00,,,0.08,Wunderground v.1.15,2013-10-15 03:55:00,
2013-10-14 23:00:00,62.5,57.9,29.97,SSE,159,7.0,7.0,85,0.00,,,0.08,Wunderground v.1.15,2013-10-15 04:00:00,
2013-10-14 23:01:00,62.5,57.9,29.97,ESE,117,7.0,7.0,85,0.00,,,0.08,Wunderground v.1.15,2013-10-15 04:01:00,
2013-10-14 23:03:00,62.5,57.9,29.97,SE,129,7.0,7.0,85,0.00,,,0.08,Wunderground v.1.15,2013-10-15 04:03:00,
2013-10-14 23:05:00,62.6,57.7,29.97,SSW,192,8.0,13.0,84,0.00,,,0.08,Wunderground v.1.15,2013-10-15 04:05:00,
2013-10-14 23:10:00,62.6,57.4,29.96,SSW,208,8.0,9.0,83,0.00,,,0.08,Wunderground v.1.15,2013-10-15 04:10:00,
2013-10-14 23:16:00,62.7,57.5,29.96,SE,132,7.0,11.0,83,0.00,,,0.08,Wunderground v.1.15,2013-10-15 04:16:00,
2013-10-14 23:22:00,62.5,57.3,29.96,SSW,208,6.0,6.0,83,0.00,,,0.08,Wunderground v.1.15,2013-10-15 04:22:00,
2013-10-14 23:27:00,62.4,57.2,29.96,South,186,5.0,6.0,83,0.00,,,0.08,Wunderground v.1.15,2013-10-15 04:27:00,
2013-10-14 23:32:00,62.2,57.3,29.96,SSE,166,5.0,5.0,84,0.00,,,0.08,Wunderground v.1.15,2013-10-15 04:32:00,
2013-10-14 23:34:00,62.2,57.3,29.96,South,180,4.0,6.0,84,0.00,,,0.08,Wunderground v.1.15,2013-10-15 04:34:00,
2013-10-14 23:39:00,62.0,57.1,29.96,SSE,151,4.0,6.0,84,0.00,,,0.08,Wunderground v.1.15,2013-10-15 04:39:00,
2013-10-14 23:44:00,61.9,57.3,29.95,SSE,165,5.0,7.0,85,0.00,,,0.08,Wunderground v.1.15,2013-10-15 04:44:00,
2013-10-14 23:50:00,61.8,57.2,29.96,SSE,154,6.0,6.0,85,0.25,,,0.10,Wunderground v.1.15,2013-10-15 04:50:00,
2013-10-14 23:55:00,61.5,57.3,29.95,SSE,161,5.0,7.0,86,0.11,,,0.10,Wunderground v.1.15,2013-10-15 04:55:00,